Oshkosh, WI

1:18 PM CDT on April 29, 2017 (GMT -0500)
Millers Bay neighborhood | | Change Station
Active Advisory: Flood Watch Active Notice: Flood Watch

Elev 764 ft 44.03 °N, 88.52 °W | Updated 2 seconds ago

Clear
Clear
45.2 °F
Feels Like 42 °F
N
6.0
Wind Variable Wind from NNE

Today
High -- | Low -- °F
--% Chance of Precip.
Yesterday
High -- | Low -- °F
Precip. -- in
Pressure 30.29 in
Visibility 10.0 miles
Clouds Clear
Windchill 42 °F
Dew Point 30 °F
Humidity 56%
Rainfall 0.00 in
Snow Depth Not available.
5:48 AM 7:55 PM
Waxing Crescent, 15% visible
METAR KOSH 291753Z 04012G21KT 10SM CLR 07/M01 A3027 RMK AO2 SLP255 T00671011 10072 20033 51004 $
Pressure 30.29 in
Visibility 10.0 miles
Clouds Clear
Windchill 42 °F
Dew Point 30 °F
Humidity 56%
Rainfall 0.00 in
Snow Depth Not available.
5:48 AM 7:55 PM
Waxing Crescent, 15% visible
METAR KOSH 291753Z 04012G21KT 10SM CLR 07/M01 A3027 RMK AO2 SLP255 T00671011 10072 20033 51004 $

Get Your Daily Forecast Email!

Thanks for signing up!

Be on the lookout for a verification email in your inbox.

You'll start receiving severe weather alerts in your inbox..

×

10-Day Weather Forecast

Almanac

Astronomy

Apr. 29, 2017 Rise Set
Actual Time
Civil Twilight
Nautical Twilight
Astronomical Twilight
Moon
Length of Visible Light
Length of Day
Tomorrow will be .
, % of the Moon is Illuminated

Today's Extremes

State Highs State Lows

Community

WunderPhotos

WunderBlog® & News

Nearby

Air Quality

  Air Quality AQ Index Pollutant
Not available.

Snow Depth

Station Depth Elevation

Earthquake Activity

City Distance Mag. Time & Date
Minimum magnitude displayed is 2.5.

Coastal Water Temperatures

Place Temperature

Stations

Nearby Weather Stations

Station Location Temp. Windchill Dew Point Humidity Wind Precip. Elev Updated Type
                   

Watches & Warnings

Flood Watch
Issued: 4:47 AM CDT Apr. 28, 2017 – National Weather Service

The Flood Watch continues for
the Fox River near Berlin
* from late tonight to Wednesday morning.
* At 3:15 am Friday the stage was 12.9 feet.
* Minor flooding is possible.
* Flood stage is 13.0 feet.
* Forecast... flood stage may be reached by after midnight tomorrow.


Lat... Lon 4398 8899 4398 8888 4391 8888 4389 8901
      4395 8911 4396 8908